Time,TemperatureF,DewpointF,PressureIn,WindDirection,WindDirectionDegrees,WindSpeedMPH,WindSpeedGustMPH,Humidity,HourlyPrecipIn,Conditions,Clouds,dailyrainin,SolarRadiationWatts/m^2,SoftwareType,DateUTC
2013-03-24 00:03:00,71.0,67.0,-100.00,ESE,106,5.0,-999.0,88,0.00,,,-99.99,0.600000,,2013-03-24 04:03:00,
2013-03-24 00:13:00,70.0,67.0,-100.00,East,100,5.0,-999.0,88,0.00,,,-99.99,0.600000,,2013-03-24 04:13:00,
2013-03-24 00:23:00,70.0,67.0,-100.00,East,100,5.0,-999.0,88,0.00,,,-99.99,0.600000,,2013-03-24 04:23:00,
2013-03-24 00:33:00,70.0,67.0,-100.00,ESE,116,7.0,-999.0,88,0.00,,,-99.99,0.600000,,2013-03-24 04:33:00,
2013-03-24 00:43:00,70.0,67.0,-100.00,ESE,123,8.0,-999.0,89,0.00,,,-99.99,0.600000,,2013-03-24 04:43:00,
2013-03-24 00:53:00,70.0,67.0,-100.00,ESE,123,8.0,-999.0,89,0.00,,,-99.99,0.600000,,2013-03-24 04:53:00,
2013-03-24 01:02:00,70.0,67.0,-100.00,ESE,122,8.0,-999.0,89,0.00,,,-99.99,0.600000,,2013-03-24 05:02:00,
2013-03-24 01:13:00,70.0,66.0,-100.00,SE,130,6.0,-999.0,88,0.00,,,-99.99,0.600000,,2013-03-24 05:13:00,
2013-03-24 01:23:00,70.0,66.0,-100.00,SE,130,6.0,-999.0,88,0.00,,,-99.99,0.600000,,2013-03-24 05:23:00,
2013-03-24 01:32:00,70.0,66.0,-100.00,SE,131,6.0,-999.0,88,0.00,,,-99.99,0.600000,,2013-03-24 05:32:00,
2013-03-24 01:43:00,70.0,66.0,-100.00,SE,131,6.0,-999.0,88,0.00,,,-99.99,0.600000,,2013-03-24 05:43:00,
2013-03-24 01:52:00,70.0,66.0,-100.00,SE,131,6.0,-999.0,88,0.00,,,-99.99,0.600000,,2013-03-24 05:52:00,
2013-03-24 02:02:00,69.0,66.0,-100.00,SE,130,7.0,-999.0,88,0.00,,,-99.99,0.600000,,2013-03-24 06:02:00,
2013-03-24 02:12:00,69.0,66.0,-100.00,ESE,123,8.0,-999.0,89,0.00,,,-99.99,0.600000,,2013-03-24 06:12:00,
2013-03-24 02:22:00,69.0,66.0,-100.00,ESE,123,8.0,-999.0,89,0.00,,,-99.99,0.600000,,2013-03-24 06:22:00,
2013-03-24 02:32:00,69.0,66.0,-100.00,ESE,122,7.0,-999.0,90,0.00,,,-99.99,0.600000,,2013-03-24 06:32:00,
2013-03-24 02:42:00,69.0,66.0,-100.00,SE,134,5.0,-999.0,91,0.00,,,-99.99,0.600000,,2013-03-24 06:42:00,
2013-03-24 02:52:00,69.0,66.0,-100.00,SE,134,5.0,-999.0,91,0.00,,,-99.99,0.600000,,2013-03-24 06:52:00,
2013-03-24 03:12:00,68.0,66.0,-100.00,SE,132,6.0,-999.0,93,0.00,,,-99.99,0.600000,,2013-03-24 07:12:00,
2013-03-24 03:22:00,68.0,66.0,-100.00,SE,132,6.0,-999.0,93,0.00,,,-99.99,0.600000,,2013-03-24 07:22:00,
2013-03-24 03:32:00,68.0,66.0,-100.00,SE,135,5.0,-999.0,93,0.00,,,-99.99,0.600000,,2013-03-24 07:32:00,
2013-03-24 03:42:00,68.0,66.0,-100.00,SE,138,4.0,-999.0,94,0.00,,,-99.99,0.600000,,2013-03-24 07:42:00,
2013-03-24 03:52:00,68.0,66.0,-100.00,SE,138,4.0,-999.0,94,0.00,,,-99.99,0.600000,,2013-03-24 07:52:00,
2013-03-24 04:03:00,68.0,66.0,-100.00,SE,133,4.0,-999.0,94,0.00,,,-99.99,0.700000,,2013-03-24 08:03:00,
2013-03-24 04:12:00,68.0,66.0,-100.00,SE,144,4.0,-999.0,94,0.00,,,-99.99,0.600000,,2013-03-24 08:12:00,
2013-03-24 04:22:00,68.0,66.0,-100.00,SE,144,4.0,-999.0,94,0.00,,,-99.99,0.600000,,2013-03-24 08:22:00,
2013-03-24 04:32:00,68.0,67.0,-100.00,SE,145,4.0,-999.0,95,0.00,,,-99.99,0.700000,,2013-03-24 08:32:00,
2013-03-24 04:42:00,68.0,67.0,-100.00,SSE,152,4.0,-999.0,95,0.00,,,-99.99,0.700000,,2013-03-24 08:42:00,
2013-03-24 04:52:00,68.0,67.0,-100.00,SSE,152,4.0,-999.0,95,0.00,,,-99.99,0.700000,,2013-03-24 08:52:00,
2013-03-24 05:02:00,68.0,67.0,-100.00,SSE,157,5.0,-999.0,96,0.00,,,-99.99,0.700000,,2013-03-24 09:02:00,
2013-03-24 05:12:00,68.0,67.0,-100.00,SSE,162,5.0,-999.0,96,0.00,,,-99.99,0.700000,,2013-03-24 09:12:00,
2013-03-24 05:22:00,68.0,67.0,-100.00,SSE,162,5.0,-999.0,96,0.00,,,-99.99,0.700000,,2013-03-24 09:22:00,
2013-03-24 05:33:00,68.0,67.0,-100.00,South,169,5.0,-999.0,96,0.00,,,-99.99,0.700000,,2013-03-24 09:33:00,
2013-03-24 05:42:00,68.0,67.0,-100.00,South,172,4.0,-999.0,97,0.00,,,-99.99,0.700000,,2013-03-24 09:42:00,
2013-03-24 05:53:00,68.0,67.0,-100.00,South,172,4.0,-999.0,97,0.00,,,-99.99,0.700000,,2013-03-24 09:53:00,
2013-03-24 06:03:00,68.0,67.0,-100.00,South,169,4.0,-999.0,97,0.00,,,-99.99,0.700000,,2013-03-24 10:03:00,
2013-03-24 06:12:00,69.0,68.0,-100.00,SSE,168,3.0,-999.0,97,0.00,,,-99.99,0.700000,,2013-03-24 10:12:00,
2013-03-24 06:22:00,69.0,68.0,-100.00,SSE,168,3.0,-999.0,97,0.00,,,-99.99,0.700000,,2013-03-24 10:22:00,
2013-03-24 06:33:00,69.0,69.0,-100.00,SSE,163,4.0,-999.0,97,0.00,,,-99.99,0.700000,,2013-03-24 10:33:00,
2013-03-24 06:42:00,70.0,69.0,-100.00,South,176,4.0,-999.0,97,0.00,,,-99.99,0.700000,,2013-03-24 10:42:00,
2013-03-24 06:52:00,70.0,69.0,-100.00,South,176,4.0,-999.0,97,0.00,,,-99.99,0.700000,,2013-03-24 10:52:00,
2013-03-24 07:03:00,70.0,69.0,-100.00,South,182,4.0,-999.0,97,0.00,,,-99.99,0.700000,,2013-03-24 11:03:00,
2013-03-24 07:12:00,71.0,70.0,-100.00,South,184,5.0,-999.0,96,0.00,,,-99.99,0.700000,,2013-03-24 11:12:00,
2013-03-24 07:22:00,71.0,70.0,-100.00,South,184,5.0,-999.0,96,0.00,,,-99.99,0.700000,,2013-03-24 11:22:00,
2013-03-24 07:33:00,71.0,70.0,-100.00,South,187,6.0,-999.0,95,0.00,,,-99.99,0.800000,,2013-03-24 11:33:00,
2013-03-24 07:42:00,72.0,70.0,-100.00,SSW,201,8.0,-999.0,95,0.00,,,-99.99,2.100000,,2013-03-24 11:42:00,
2013-03-24 07:52:00,72.0,70.0,-100.00,SSW,201,8.0,-999.0,95,0.00,,,-99.99,2.100000,,2013-03-24 11:52:00,
2013-03-24 08:03:00,72.0,70.0,-100.00,SSW,206,10.0,-999.0,93,0.00,,,-99.99,5.000000,,2013-03-24 12:03:00,
2013-03-24 08:12:00,73.0,70.0,-100.00,SSW,201,10.0,-999.0,91,0.00,,,-99.99,14.000000,,2013-03-24 12:12:00,
2013-03-24 08:22:00,73.0,70.0,-100.00,SSW,201,10.0,-999.0,91,0.00,,,-99.99,14.000000,,2013-03-24 12:22:00,
2013-03-24 08:32:00,73.0,70.0,-100.00,SSW,210,8.0,-999.0,91,0.00,,,-99.99,20.200001,,2013-03-24 12:32:00,
2013-03-24 08:42:00,73.0,71.0,-100.00,SW,217,7.0,-999.0,91,0.00,,,-99.99,28.400000,,2013-03-24 12:42:00,
2013-03-24 08:52:00,73.0,71.0,-100.00,SW,217,7.0,-999.0,91,0.00,,,-99.99,28.400000,,2013-03-24 12:52:00,
2013-03-24 09:02:00,74.0,71.0,-100.00,SW,229,8.0,-999.0,90,0.00,,,-99.99,54.099998,,2013-03-24 13:02:00,
2013-03-24 09:13:00,75.0,71.0,-100.00,SW,230,9.0,-999.0,88,0.00,,,-99.99,60.299999,,2013-03-24 13:13:00,
2013-03-24 09:22:00,75.0,71.0,-100.00,SW,230,9.0,-999.0,88,0.00,,,-99.99,60.299999,,2013-03-24 13:22:00,
2013-03-24 09:32:00,75.0,71.0,-100.00,WSW,237,10.0,-999.0,88,0.00,,,-99.99,92.800003,,2013-03-24 13:32:00,
2013-03-24 09:42:00,76.0,71.0,-100.00,SW,231,10.0,-999.0,86,0.00,,,-99.99,74.800003,,2013-03-24 13:42:00,
2013-03-24 09:52:00,76.0,71.0,-100.00,SW,231,10.0,-999.0,86,0.00,,,-99.99,74.800003,,2013-03-24 13:52:00,
2013-03-24 10:02:00,76.0,71.0,-100.00,SW,228,11.0,-999.0,85,0.00,,,-99.99,73.699997,,2013-03-24 14:02:00,
2013-03-24 10:12:00,76.0,71.0,-100.00,SW,234,12.0,-999.0,85,0.00,,,-99.99,33.099998,,2013-03-24 14:12:00,
2013-03-24 10:22:00,76.0,71.0,-100.00,SW,234,12.0,-999.0,85,0.00,,,-99.99,33.099998,,2013-03-24 14:22:00,
2013-03-24 10:32:00,76.0,72.0,-100.00,WSW,239,14.0,-999.0,87,0.00,,,-99.99,82.000000,,2013-03-24 14:32:00,
2013-03-24 10:42:00,77.0,72.0,-100.00,SW,234,16.0,-999.0,84,0.00,,,-99.99,171.500000,,2013-03-24 14:42:00,
2013-03-24 10:52:00,77.0,72.0,-100.00,SW,234,16.0,-999.0,84,0.00,,,-99.99,171.500000,,2013-03-24 14:52:00,
2013-03-24 11:02:00,78.0,72.0,-100.00,SW,234,15.0,-999.0,82,0.00,,,-99.99,198.000000,,2013-03-24 15:02:00,
2013-03-24 11:12:00,79.0,72.0,-100.00,SW,228,17.0,-999.0,79,0.00,,,-99.99,386.700012,,2013-03-24 15:12:00,
2013-03-24 11:22:00,79.0,72.0,-100.00,SW,228,17.0,-999.0,79,0.00,,,-99.99,386.700012,,2013-03-24 15:22:00,
2013-03-24 11:33:00,81.0,72.0,-100.00,SW,228,19.0,-999.0,74,0.00,,,-99.99,652.299988,,2013-03-24 15:33:00,
2013-03-24 11:43:00,81.0,72.0,-100.00,SW,231,19.0,-999.0,73,0.00,,,-99.99,386.100006,,2013-03-24 15:43:00,
2013-03-24 11:53:00,81.0,72.0,-100.00,SW,231,19.0,-999.0,73,0.00,,,-99.99,386.100006,,2013-03-24 15:53:00,
2013-03-24 12:03:00,80.0,72.0,-100.00,SW,231,18.0,-999.0,75,0.00,,,-99.99,251.699997,,2013-03-24 16:03:00,
2013-03-24 12:12:00,79.0,72.0,-100.00,SW,232,19.0,-999.0,77,0.00,,,-99.99,179.300003,,2013-03-24 16:12:00,
2013-03-24 12:23:00,79.0,72.0,-100.00,SW,232,19.0,-999.0,77,0.00,,,-99.99,179.300003,,2013-03-24 16:23:00,
2013-03-24 12:33:00,80.0,72.0,-100.00,SW,230,20.0,-999.0,77,0.00,,,-99.99,347.500000,,2013-03-24 16:33:00,
2013-03-24 12:42:00,80.0,72.0,-100.00,SW,233,18.0,-999.0,76,0.00,,,-99.99,401.899994,,2013-03-24 16:42:00,
2013-03-24 12:52:00,80.0,72.0,-100.00,SW,233,18.0,-999.0,76,0.00,,,-99.99,401.899994,,2013-03-24 16:52:00,
2013-03-24 13:02:00,81.0,72.0,-100.00,SW,232,17.0,-999.0,74,0.00,,,-99.99,436.299988,,2013-03-24 17:02:00,
2013-03-24 13:12:00,80.0,72.0,-100.00,SW,229,17.0,-999.0,76,0.00,,,-99.99,144.100006,,2013-03-24 17:12:00,
2013-03-24 13:23:00,80.0,72.0,-100.00,SW,229,17.0,-999.0,76,0.00,,,-99.99,144.100006,,2013-03-24 17:23:00,
2013-03-24 13:33:00,79.0,72.0,-100.00,SW,235,17.0,-999.0,78,0.00,,,-99.99,149.100006,,2013-03-24 17:33:00,
2013-03-24 13:42:00,79.0,72.0,-100.00,SW,230,15.0,-999.0,79,0.00,,,-99.99,69.000000,,2013-03-24 17:42:00,
2013-03-24 13:53:00,79.0,72.0,-100.00,SW,230,15.0,-999.0,79,0.00,,,-99.99,69.000000,,2013-03-24 17:53:00,
2013-03-24 14:03:00,78.0,72.0,-100.00,SW,234,12.0,-999.0,82,0.00,,,-99.99,24.600000,,2013-03-24 18:03:00,
2013-03-24 14:12:00,75.0,72.0,-100.00,SW,229,10.0,-999.0,89,0.14,,,-99.99,5.400000,,2013-03-24 18:12:00,
2013-03-24 14:22:00,75.0,72.0,-100.00,SW,229,10.0,-999.0,89,0.14,,,-99.99,5.400000,,2013-03-24 18:22:00,
2013-03-24 14:32:00,73.0,72.0,-100.00,SW,234,13.0,-999.0,94,0.22,,,-99.99,4.500000,,2013-03-24 18:32:00,
2013-03-24 14:43:00,71.0,69.0,-100.00,SW,233,17.0,-999.0,92,0.11,,,-99.99,5.700000,,2013-03-24 18:43:00,
2013-03-24 14:52:00,71.0,69.0,-100.00,SW,233,17.0,-999.0,92,0.11,,,-99.99,5.700000,,2013-03-24 18:52:00,
2013-03-24 15:02:00,69.0,66.0,-100.00,SW,235,16.0,-999.0,91,0.03,,,-99.99,15.100000,,2013-03-24 19:02:00,
2013-03-24 15:12:00,67.0,64.0,-100.00,SW,233,14.0,-999.0,91,0.00,,,-99.99,20.100000,,2013-03-24 19:12:00,
2013-03-24 15:22:00,67.0,64.0,-100.00,SW,233,14.0,-999.0,91,0.00,,,-99.99,20.100000,,2013-03-24 19:22:00,
2013-03-24 15:32:00,67.0,65.0,-100.00,SW,228,10.0,-999.0,91,0.00,,,-99.99,127.599998,,2013-03-24 19:32:00,
2013-03-24 15:43:00,69.0,66.0,-100.00,WSW,238,9.0,-999.0,90,0.00,,,-99.99,279.899994,,2013-03-24 19:43:00,
2013-03-24 15:53:00,69.0,66.0,-100.00,WSW,238,9.0,-999.0,90,0.00,,,-99.99,279.899994,,2013-03-24 19:53:00,
2013-03-24 16:03:00,73.0,69.0,-100.00,WSW,251,13.0,-999.0,88,0.00,,,-99.99,460.799988,,2013-03-24 20:03:00,
2013-03-24 16:12:00,76.0,72.0,-100.00,WSW,247,15.0,-999.0,86,0.00,,,-99.99,634.700012,,2013-03-24 20:12:00,
2013-03-24 16:22:00,76.0,72.0,-100.00,WSW,247,15.0,-999.0,86,0.00,,,-99.99,634.700012,,2013-03-24 20:22:00,
2013-03-24 16:32:00,78.0,73.0,-100.00,WSW,249,18.0,-999.0,84,0.00,,,-99.99,403.399994,,2013-03-24 20:32:00,
2013-03-24 16:42:00,78.0,73.0,-100.00,WSW,252,18.0,-999.0,85,0.00,,,-99.99,191.300003,,2013-03-24 20:42:00,
2013-03-24 16:53:00,78.0,73.0,-100.00,WSW,252,18.0,-999.0,85,0.00,,,-99.99,191.300003,,2013-03-24 20:53:00,
2013-03-24 17:02:00,78.0,73.0,-100.00,WSW,254,18.0,-999.0,85,0.00,,,-99.99,239.600006,,2013-03-24 21:02:00,
2013-03-24 17:12:00,78.0,73.0,-100.00,WSW,254,19.0,-999.0,84,0.00,,,-99.99,224.100006,,2013-03-24 21:12:00,
2013-03-24 17:22:00,78.0,73.0,-100.00,WSW,254,19.0,-999.0,84,0.00,,,-99.99,224.100006,,2013-03-24 21:22:00,
2013-03-24 17:33:00,78.0,73.0,-100.00,WSW,258,18.0,-999.0,83,0.00,,,-99.99,283.700012,,2013-03-24 21:33:00,
2013-03-24 17:43:00,78.0,73.0,-100.00,WSW,257,20.0,-999.0,85,0.00,,,-99.99,234.600006,,2013-03-24 21:43:00,
2013-03-24 17:53:00,78.0,73.0,-100.00,WSW,257,20.0,-999.0,85,0.00,,,-99.99,234.600006,,2013-03-24 21:53:00,
2013-03-24 18:03:00,78.0,73.0,-100.00,WSW,258,16.0,-999.0,85,0.00,,,-99.99,231.899994,,2013-03-24 22:03:00,
2013-03-24 18:13:00,78.0,73.0,-100.00,WSW,258,15.0,-999.0,85,0.00,,,-99.99,226.800003,,2013-03-24 22:13:00,
2013-03-24 18:23:00,78.0,73.0,-100.00,WSW,258,15.0,-999.0,85,0.00,,,-99.99,226.800003,,2013-03-24 22:23:00,
2013-03-24 18:33:00,77.0,72.0,-100.00,West,264,14.0,-999.0,85,0.00,,,-99.99,143.100006,,2013-03-24 22:33:00,
2013-03-24 18:43:00,77.0,72.0,-100.00,West,264,13.0,-999.0,85,0.00,,,-99.99,95.000000,,2013-03-24 22:43:00,
2013-03-24 18:53:00,77.0,72.0,-100.00,West,264,13.0,-999.0,85,0.00,,,-99.99,95.000000,,2013-03-24 22:53:00,
2013-03-24 19:03:00,76.0,72.0,-100.00,West,271,11.0,-999.0,85,0.00,,,-99.99,55.500000,,2013-03-24 23:03:00,
2013-03-24 19:12:00,76.0,71.0,-100.00,West,264,12.0,-999.0,84,0.00,,,-99.99,43.299999,,2013-03-24 23:12:00,
2013-03-24 19:22:00,76.0,71.0,-100.00,West,264,12.0,-999.0,84,0.00,,,-99.99,43.299999,,2013-03-24 23:22:00,
2013-03-24 19:32:00,75.0,71.0,-100.00,WSW,258,11.0,-999.0,85,0.00,,,-99.99,31.200001,,2013-03-24 23:32:00,
2013-03-24 19:42:00,75.0,71.0,-100.00,WSW,258,9.0,-999.0,87,0.00,,,-99.99,16.299999,,2013-03-24 23:42:00,
2013-03-24 19:53:00,75.0,71.0,-100.00,WSW,258,9.0,-999.0,87,0.00,,,-99.99,16.299999,,2013-03-24 23:53:00,
2013-03-24 20:02:00,74.0,71.0,-100.00,WSW,256,10.0,-999.0,88,0.00,,,-99.99,3.700000,,2013-03-25 00:02:00,
2013-03-24 20:12:00,74.0,71.0,-100.00,West,264,9.0,-999.0,89,0.00,,,-99.99,1.100000,,2013-03-25 00:12:00,
2013-03-24 20:22:00,74.0,71.0,-100.00,West,264,9.0,-999.0,89,0.00,,,-99.99,1.100000,,2013-03-25 00:22:00,
2013-03-24 20:32:00,74.0,70.0,-100.00,West,268,12.0,-999.0,87,0.00,,,-99.99,0.800000,,2013-03-25 00:32:00,
2013-03-24 20:43:00,73.0,70.0,-100.00,West,266,9.0,-999.0,88,0.00,,,-99.99,0.800000,,2013-03-25 00:43:00,
2013-03-24 20:53:00,73.0,70.0,-100.00,West,266,9.0,-999.0,88,0.00,,,-99.99,0.800000,,2013-03-25 00:53:00,
2013-03-24 21:02:00,73.0,69.0,-100.00,West,264,9.0,-999.0,89,0.00,,,-99.99,0.700000,,2013-03-25 01:02:00,
2013-03-24 21:12:00,72.0,69.0,-100.00,West,265,9.0,-999.0,89,0.00,,,-99.99,0.700000,,2013-03-25 01:12:00,
2013-03-24 21:22:00,72.0,69.0,-100.00,West,265,9.0,-999.0,89,0.00,,,-99.99,0.700000,,2013-03-25 01:22:00,
2013-03-24 21:32:00,72.0,69.0,-100.00,West,262,8.0,-999.0,90,0.00,,,-99.99,0.700000,,2013-03-25 01:32:00,
2013-03-24 21:42:00,71.0,68.0,-100.00,West,269,8.0,-999.0,91,0.00,,,-99.99,0.700000,,2013-03-25 01:42:00,
2013-03-24 21:52:00,71.0,68.0,-100.00,West,269,8.0,-999.0,91,0.00,,,-99.99,0.700000,,2013-03-25 01:52:00,
2013-03-24 22:02:00,70.0,68.0,-100.00,West,272,9.0,-999.0,91,0.00,,,-99.99,0.700000,,2013-03-25 02:02:00,
2013-03-24 22:12:00,70.0,67.0,-100.00,West,272,11.0,-999.0,90,0.00,,,-99.99,0.700000,,2013-03-25 02:12:00,
2013-03-24 22:22:00,70.0,67.0,-100.00,West,272,11.0,-999.0,90,0.00,,,-99.99,0.700000,,2013-03-25 02:22:00,
2013-03-24 22:33:00,69.0,66.0,-100.00,West,264,11.0,-999.0,89,0.00,,,-99.99,0.700000,,2013-03-25 02:33:00,
2013-03-24 22:43:00,69.0,65.0,-100.00,West,259,9.0,-999.0,89,0.00,,,-99.99,0.700000,,2013-03-25 02:43:00,
2013-03-24 22:52:00,69.0,65.0,-100.00,West,259,9.0,-999.0,89,0.00,,,-99.99,0.700000,,2013-03-25 02:52:00,
2013-03-24 23:02:00,68.0,65.0,-100.00,WSW,243,6.0,-999.0,91,0.00,,,-99.99,0.600000,,2013-03-25 03:02:00,
2013-03-24 23:13:00,67.0,65.0,-100.00,WSW,238,5.0,-999.0,92,0.00,,,-99.99,0.700000,,2013-03-25 03:13:00,
2013-03-24 23:23:00,67.0,65.0,-100.00,WSW,238,5.0,-999.0,92,0.00,,,-99.99,0.700000,,2013-03-25 03:23:00,
2013-03-24 23:33:00,67.0,65.0,-100.00,WSW,239,5.0,-999.0,93,0.00,,,-99.99,0.700000,,2013-03-25 03:33:00,
2013-03-24 23:43:00,67.0,65.0,-100.00,WSW,239,5.0,-999.0,93,0.00,,,-99.99,0.700000,,2013-03-25 03:43:00,
2013-03-24 23:53:00,67.0,65.0,-100.00,SW,236,5.0,-999.0,94,0.00,,,-99.99,0.800000,,2013-03-25 03:53:00,